עמוד ראשי
METAR-TAF:

METAR-TAF

שדות תעופה :

מנזר סנטה קתרינה, מצרים

קו רוחב: 28-41-07N, קו אורך: 034-03-45E, גובה: 1331מטר

METAR: חסר

זמן: 05:24 (03:24 UTC)

תחזית

הדו"ח נערך לפני 4 שעות ו 24דקות, בשעה 23:00 UTC
תחזית בתוקף מ 14 ב 00 UTC עד 15 ב 06 UTC
רוח 8קשר מכיוון צפון/צפון-מערב
ראות 10 קילומטר או יותר
ללא עננים שבסיסם נמוך מ 5000 רגל או קומולונימבוס

TAF: HESC 132300Z 1400/1506 33008KT CAVOK

תצפיות ותחזיות מזג אוויר לגבי יותר מ- 4,000 שדות תעופה ברחבי העולם. דוחות METAR ו- TAF.

התחנות הזמינות מסומנות בנקודות צהובות ואדומות על גבי המפה.

העבר את העכבר לנקודה הצבעונית על מנת לראות את שם התחנה.

לאחר מכן, לחץ כדי לראות את תוכן ואת תחזיות מזג האוויר.

כדי לשנות את המפה: לחץ על הכפתורים הירוקים עם הפלוס השחור כדי להתקרב; על הכפתור הירוק עם המקף כדי להתרחק; או בחיצים הירוקים למפות סמוכות.


METAR-TAF: